Regional Weather Roundup
Issued by NWS Boston, MA

Home | Current Version | Previous Version | Text Only | Print | Product List | Glossary On
Versions: 1 2 3 4 5 6 7 8 9 10 11 12 13 14 15 16 17 18 19 20 21 22 23 24 25 26 27 28 29 30 31 32 33 34 35 36 37 38 39 40 41 42 43 44 45 46 47 48 49 50
000
ASUS41 KBOX 280010
RWRBOX

REGIONAL WEATHER ROUNDUP
NATIONAL WEATHER SERVICE TAUNTON MA
800 PM EDT WED MAY 27 2015

NOTE:  "FAIR" INDICATES FEW OR NO CLOUDS BELOW 12,000 FEET WITH NO
SIGNIFICANT WEATHER AND/OR OBSTRUCTIONS TO VISIBILITY.  THE FOLLOWING
OBSERVATION LOCATIONS DO NOT REPORT PRESENT WEATHER...PROVINCETOWN...
SMITHFIELD...BLOCK ISLAND...KEENE...AND OXFORD.

MAZALL-280100-
EASTERN MASSACHUSETTS

CITY           SKY/WX    TMP DP  RH WIND       PRES   REMARKS
BOSTON         PTCLDY    73  64  73 SW16G26   30.11R
6HR MIN TEMP:  73; 6HR MAX TEMP:  85;

BEVERLY        MOCLDY    75  63  66 SW10G21   30.09R
LAWRENCE       MOCLDY    77  66  68 SW17G28   30.09R
BEDFORD        CLEAR     74  63  68 SW16G25   30.10R
BLUE HILL        N/A     70  63  78 SW28G35   30.13R
NORWOOD        PTCLDY    73  64  73 S16G22    30.13R
MARSHFIELD     PTCLDY    70  63  78 SW13G28   30.16R
PLYMOUTH       PTCLDY    67  60  78 SW16G24   30.17R
TAUNTON        PTCLDY    68  60  75 SW13G20   30.16R
NEW BEDFORD    MOCLDY    65  59  81 SW17G24   30.17R
$$

MAZALL-280100-
CAPE COD AND THE ISLANDS

CITY           SKY/WX    TMP DP  RH WIND       PRES   REMARKS
FALMOUTH       CLOUDY    66  61  82 SW16G24   30.20R
HYANNIS        CLOUDY    66  59  78 SW18G28   30.18R
CHATHAM        PTCLDY    62  60  93 SW8G18    30.21R
PROVINCETOWN   PTCLDY    63  55  77 SW20G26   30.17R
NANTUCKET      CLEAR     61  57  87 SW12      30.21R
MARTHAS VNYRD  CLEAR     62  59  90 SW10      30.20R
$$

MAZALL-280100-
CENTRAL AND WESTERN MASSACHUSETTS

CITY           SKY/WX    TMP DP  RH WIND       PRES   REMARKS
WORCESTER      PTCLDY    71  62  73 SW21G31   30.15R
6HR MIN TEMP:  71; 6HR MAX TEMP:  85; 6HR PCP: TRACE;

FITCHBURG      PTCLDY    77  66  68 S14G24    30.11R
ORANGE         TSTM      70  64  81 SW10      30.14R
SPRINGFIELD    TSTM      71  67  85 S10G24    30.11S
WESTFIELD      LGT RAIN  70  65  84 SW9       30.13S
NORTH ADAMS    LGT RAIN  67  65  93 CALM      30.09F
PITTSFIELD     LGT RAIN  66  64  93 S5        30.12F
$$

RIZALL-280100-
RHODE ISLAND

CITY           SKY/WX    TMP DP  RH WIND       PRES   REMARKS
PROVIDENCE     MOCLDY    70  60  70 SW14G23   30.17R
6HR MIN TEMP:  70; 6HR MAX TEMP:  80;

NEWPORT        MOCLDY    62  58  86 S7        30.19S
BLOCK ISLAND   CLEAR     59  54  82 SW12      30.21R
SMITHFIELD     CLOUDY   N/A N/A N/A SW10G20   30.15R
WESTERLY       CLOUDY    64  58  80 SW6       30.19R
$$

CTZALL-280100-
CONNECTICUT

CITY           SKY/WX    TMP DP  RH WIND       PRES   REMARKS
BRADLEY INTL   CLOUDY    74  64  71 S13       30.13R
6HR MIN TEMP:  74; 6HR MAX TEMP:  86; 6HR PCP: TRACE;

HARTFORD       MOCLDY    72  63  73 S12G18    30.15R
BRIDGEPORT     MOCLDY    69  62  78 SW8       30.16R
DANBURY        LGT RAIN  69  64  84 SE3       30.15F
GROTON         PTCLDY    65  58  78 SW15      30.17R
NEW HAVEN      MOCLDY    67  61  81 VRB3      30.17R
CHESTER        NOT AVBL
MERIDEN        MOCLDY    71  62  73 W8        30.18R
WILLIMANTIC    CLOUDY    71  63  75 S13G18    30.16R
OXFORD         CLOUDY    70  63  78 CALM      30.16S THUNDER
$$

MEZ002-015-021-024-NHZ003-005-008-011-012-014-VTZ005-008-280100-
NORTHERN NEW ENGLAND

CITY           SKY/WX    TMP DP  RH WIND       PRES   REMARKS
PORTLAND ME    CLOUDY    69  61  75 S12G20    30.01R
6HR MIN TEMP:  69; 6HR MAX TEMP:  79;

BANGOR ME      MOCLDY    65  60  84 S8        30.02R
CONCORD NH     MOCLDY    81  64  56 SW13G21   30.04R
MANCHESTER NH  PTCLDY    81  66  60 S15G24    30.05R
NASHUA NH      PTCLDY    80  67  64 S8        30.08R
PORTSMOUTH NH  MOCLDY    79  66  63 S14G21    30.02R
JAFFREY NH     LGT RAIN  71  68  90 SW8       30.13R
KEENE NH       CLOUDY    70  64  83 S3        30.11R THUNDER
BURLINGTON VT  CLOUDY    75  65  70 S8        29.97R
MT. WASHINGTON LGT RAIN  54  54 100 W41         N/A  VSB 0
$$

NYZ052-076-280100-
EASTERN NEW YORK

CITY           SKY/WX    TMP DP  RH WIND       PRES   REMARKS
ALBANY         CLOUDY    70  66  87 S10       30.06S
6HR MIN TEMP:  70; 6HR MAX TEMP:  87; 6HR PCP:  0.11;

NEW YORK CITY  MOCLDY    71  60  68 VRB5      30.13R
6HR MIN TEMP:  71; 6HR MAX TEMP:  81; 6HR PCP: TRACE;

$$

ANZALL-280100-
MARINE OBSERVATIONS

STATION/POSITION TIME  TEMP    WIND        PRES    VSBY  WAVE
                       AIR SEA DIR/SP/G                  HT/PER
                 (UTC) (F)     (DEG/KT/KT) (MB)    (MI)  (FT/S)
BOSTON BUOY      2350   63 53  220/ 16/ 19   N/A           3/ 4
BUZZARDS BAY     2300          210/ 15/ 16   N/A
NANTUCKET SOUND  2350   62 60  210/ 16/ 19   N/A           2/ 4
MASS BAY-STELLWA NOT AVBL
ISLE OF SHOALS   0000   64     190/ 25/ 26   N/A
S OF BLOCK IS    2308      56                N/A           4/ 6
$$

......................KEY.........................
  SKY/WX - SKY CONDITION/PRESENT WEATHER
  TMP    - TEMPERATURE IN FAHRENHEIT
  DWPT   - DEWPOINT IN FAHRENHEIT
  RH     - RELATIVE HUMIDITY IN PERCENT
  WIND   - DIRECTION AND SPEED IN MPH
  PRES   - MEAN SEA LEVEL PRESSURE IN INCHES OF HG
  WCI    - WIND CHILL INDEX
  VSB    - VISIBILITY IN MILES
  HX     - HEAT INDEX
  TC     - TEMPERATURE IN CELSIUS
  VRB    - VARIABLE WIND DIRECTION
  N/A    - NOT AVAILABLE



USA.gov is the U.S. government's official web portal to all federal, state and local government web resources and services.